Chalons/Vatry, France

8:54 AM CET on December 11, 2016 (GMT +0100)
Vatry

Weather History for LFOK - November, 2012

Change the Weather History Date:

Friday, November 16, 2012

  Actual Average Record
Temperature  
Mean Temperature 37 °F -  
Max Temperature 41 °F - - ()
Min Temperature 33 °F - - ()
Degree Days  
Heating Degree Days 28    
Moisture  
Dew Point 35 °F    
Average Humidity 94    
Maximum Humidity 100    
Minimum Humidity 87    
Precipitation  
Precipitation 0.00 in - - ()
Sea Level Pressure  
Sea Level Pressure 30.05 in    
Wind  
Wind Speed 4 mph ()    
Max Wind Speed 9 mph    
Max Gust Speed -    
Visibility 3.6 miles    
Events Fog    
T = Trace of Precipitation, MM = Missing Value Source: Averaged Metar Reports

Daily Weather History Graph

Daily Weather History Graph

Search for Another Location

Airport or City:

Trip Planner

Search our weather history database for the weather conditions in past years. The results will help you decide how hot, cold, wet, or windy it might be!

Date:

Astronomy

Nov. 16, 2012 Rise Set
Actual Time 7:53 AM CET 5:01 PM CET
Civil Twilight 7:19 AM CET 5:36 PM CET
Nautical Twilight 6:40 AM CET 6:14 PM CET
Astronomical Twilight 6:03 AM CET 6:51 PM CET
Moon 10:39 AM CET (11/16) 7:38 PM CET (11/16)
Length of Visible Light 10h 16m
Length of Day
9h 07m
Waxing Crescent, 9% of the Moon is Illuminated
Nov 16
Waxing Crescent
Nov 20
First Quarter
Nov 28
Full
Dec 6
Last Quarter
Dec 13
New

Hourly Weather History & Observations

Time (CET) Temp. Windchill Dew Point Humidity Pressure Visibility Wind Dir Wind Speed Gust Speed Precip Events Conditions
12:00 AM 35.6 °F 31.7 °F 33.8 °F 93% 30.12 in 5.6 mi ESE 4.6 mph - N/A   Overcast
12:30 AM 35.6 °F 32.8 °F 33.8 °F 93% 30.12 in 5.6 mi Variable 3.5 mph - N/A   Overcast
1:00 AM 35.6 °F 32.8 °F 33.8 °F 93% 30.12 in 5.0 mi Variable 3.5 mph - N/A   Overcast
1:30 AM 35.6 °F - 33.8 °F 93% 30.12 in 4.3 mi Variable 2.3 mph - N/A   Overcast
2:00 AM 35.6 °F 32.8 °F 33.8 °F 93% 30.12 in 4.3 mi Variable 3.5 mph - N/A   Overcast
2:30 AM 35.6 °F 32.8 °F 33.8 °F 93% 30.12 in 5.0 mi Variable 3.5 mph - N/A   Overcast
3:00 AM 35.6 °F 31.7 °F 33.8 °F 93% 30.09 in 4.3 mi East 4.6 mph - N/A   Overcast
3:30 AM 35.6 °F 31.7 °F 33.8 °F 93% 30.09 in 4.3 mi ESE 4.6 mph - N/A   Overcast
4:00 AM 35.6 °F 32.8 °F 33.8 °F 93% 30.09 in 4.3 mi Variable 3.5 mph - N/A   Overcast
4:30 AM 35.6 °F 31.7 °F 33.8 °F 93% 30.09 in 3.7 mi East 4.6 mph - N/A   Overcast
5:00 AM 35.6 °F 32.8 °F 33.8 °F 93% 30.09 in 3.7 mi East 3.5 mph - N/A   Overcast
5:30 AM 35.6 °F - 33.8 °F 93% 30.09 in 2.8 mi SE 2.3 mph - N/A   Overcast
6:00 AM 35.6 °F 31.7 °F 33.8 °F 93% 30.09 in - ESE 4.6 mph - N/A   Overcast
6:30 AM 35.6 °F 32.8 °F 33.8 °F 93% 30.09 in - ESE 3.5 mph - N/A   Overcast
7:00 AM 35.6 °F 32.8 °F 33.8 °F 93% 30.09 in 1.6 mi SE 3.5 mph - N/A   Overcast
7:30 AM 35.6 °F - 33.8 °F 93% 30.09 in 0.8 mi Variable 1.2 mph - N/A   Overcast
8:00 AM 35.6 °F 32.8 °F 33.8 °F 93% 30.09 in 0.7 mi ESE 3.5 mph - N/A Fog Fog
8:30 AM 35.6 °F 31.7 °F 33.8 °F 93% 30.09 in 1.0 mi SE 4.6 mph - N/A Fog Fog
9:00 AM 35.6 °F - 35.6 °F 100% 30.09 in 0.8 mi Variable 2.3 mph - N/A Fog Fog
9:30 AM 35.6 °F 30.7 °F 35.6 °F 100% 30.09 in 1.1 mi SE 5.8 mph - N/A   Overcast
10:00 AM 35.6 °F 31.7 °F 35.6 °F 100% 30.09 in 2.8 mi ESE 4.6 mph - N/A   Overcast
10:30 AM 35.6 °F 32.8 °F 35.6 °F 100% 30.09 in 3.1 mi South 3.5 mph - N/A   Overcast
11:00 AM 37.4 °F 34.9 °F 35.6 °F 93% 30.09 in 3.7 mi East 3.5 mph - N/A   Overcast
11:30 AM 37.4 °F - 35.6 °F 93% 30.09 in 4.3 mi Calm Calm - N/A   Overcast
12:00 PM 37.4 °F 33.8 °F 35.6 °F 93% 30.06 in 4.3 mi SE 4.6 mph - N/A   Overcast
12:30 PM 39.2 °F 35.9 °F 35.6 °F 87% 30.06 in 5.0 mi SE 4.6 mph - N/A   Overcast
1:00 PM 39.2 °F 35.0 °F 35.6 °F 87% 30.06 in 5.6 mi East 5.8 mph - N/A   Overcast
1:30 PM 39.2 °F 35.9 °F 37.4 °F 93% 30.04 in 6.2 mi ESE 4.6 mph - N/A   Overcast
2:00 PM 39.2 °F 37.0 °F 35.6 °F 87% 30.04 in 6.2 mi Variable 3.5 mph - N/A   Overcast
2:30 PM 41.0 °F 38.0 °F 37.4 °F 87% 30.04 in 6.2 mi East 4.6 mph - N/A   Mostly Cloudy
3:00 PM 41.0 °F 36.4 °F 37.4 °F 87% 30.01 in 6.2 mi ENE 6.9 mph - N/A   Mostly Cloudy
3:30 PM 41.0 °F 36.4 °F 37.4 °F 87% 30.01 in 6.2 mi East 6.9 mph - N/A   Partly Cloudy
4:00 PM 41.0 °F 37.1 °F 37.4 °F 87% 30.01 in 6.2 mi East 5.8 mph - N/A   Partly Cloudy
4:30 PM 39.2 °F 35.9 °F 37.4 °F 93% 30.01 in 6.2 mi East 4.6 mph - N/A   Unknown
5:00 PM 37.4 °F 33.8 °F 35.6 °F 93% 30.01 in 6.2 mi ENE 4.6 mph - N/A   Unknown
5:30 PM 35.6 °F 31.7 °F 33.8 °F 93% 30.01 in 4.3 mi NE 4.6 mph - N/A   Unknown
6:00 PM 35.6 °F 30.7 °F 33.8 °F 93% 30.01 in 3.7 mi NE 5.8 mph - N/A   Unknown
6:30 PM 33.8 °F 29.6 °F 33.8 °F 100% 30.01 in 3.7 mi NE 4.6 mph - N/A   Unknown
7:00 PM 33.8 °F 30.8 °F 32.0 °F 93% 30.01 in - NE 3.5 mph - N/A   Mist
7:30 PM 33.8 °F 30.8 °F 33.8 °F 100% 30.01 in 3.7 mi ENE 3.5 mph - N/A   Unknown
8:00 PM 33.8 °F 29.6 °F 32.0 °F 93% 29.98 in 3.7 mi East 4.6 mph - N/A   Unknown
8:30 PM 35.6 °F 29.9 °F 33.8 °F 93% 29.98 in 5.0 mi East 6.9 mph - N/A   Partly Cloudy
9:00 PM 35.6 °F 30.7 °F 35.6 °F 100% 29.98 in 0.1 mi SE 5.8 mph - N/A Fog Fog
9:30 PM 39.2 °F 35.9 °F 39.2 °F 100% 29.98 in 0.1 mi SE 4.6 mph - N/A Fog Fog
10:00 PM 39.2 °F 33.6 °F 39.2 °F 100% 29.98 in 0.1 mi SE 8.1 mph - N/A Fog Fog
10:30 PM 41.0 °F 35.8 °F 41.0 °F 100% 29.98 in 0.1 mi SSE 8.1 mph - N/A Fog Fog
11:00 PM 41.0 °F 35.2 °F 41.0 °F 100% 29.95 in 0.1 mi SSE 9.2 mph - N/A Fog Fog
11:30 PM 41.0 °F 35.2 °F 41.0 °F 100% 29.95 in 0.1 mi SSE 9.2 mph - N/A Fog Fog